Wind_Speed
12 12 12 11 6 8 10 14 17 18 18 16 17 15 15 17 14 7 8 13 17 17 24 21 21 24 24 25 24 23 22 21 20 18 16 16 16 15 15 15 16 16 17 16 16 15 14 14 14
14 13 12 10 6 10 14 19 21 22 21 22 22 22 22 20 22 24 22 13 13 14 17 25 25 23 25 26 25 25 25 24 23 21 19 18 17 17 17 17 18 18 17 17 16 15 14 14 14
16 15 13 8 11 13 8 12 16 17 20 20 22 23 25 26 27 26 27 28 22 18 16 17 25 28 27 27 28 28 27 26 24 23 23 21 20 19 18 19 20 19 18 18 17 16 15 14 14
10 12 11 13 18 20 21 22 23 24 25 26 27 22 26 26 31 34 33 30 34 32 25 21 20 26 27 29 29 30 30 28 26 25 24 24 23 21 21 20 21 20 20 19 19 17 16 14 13
12 11 11 12 16 19 17 21 22 22 24 27 30 32 31 34 32 31 31 34 35 36 36 32 27 25 27 30 28 31 33 31 28 27 26 26 25 24 24 23 23 23 22 22 20 18 17 15 13
9 9 10 10 15 19 22 23 24 26 26 27 30 32 35 39 41 39 35 34 34 35 38 41 36 32 30 30 32 31 32 33 31 29 29 28 28 28 26 26 25 25 24 23 21 19 18 16 13
9 11 14 18 21 22 22 24 25 26 28 31 33 33 32 36 39 42 42 41 37 36 37 39 42 38 37 34 34 34 35 34 32 32 31 30 30 30 29 28 28 27 26 25 24 21 19 17 15
9 11 14 16 18 21 22 23 25 27 28 29 31 28 32 37 36 37 39 40 41 41 38 40 39 41 42 40 39 39 37 37 35 35 34 33 32 32 32 32 30 30 29 27 25 23 22 19 18
11 9 13 18 15 18 23 26 30 32 33 34 34 37 41 43 40 37 38 39 41 41 42 39 41 42 41 42 43 41 42 41 38 36 35 35 34 33 33 33 31 30 30 29 27 25 24 21 20
13 13 14 19 22 25 28 31 33 36 36 37 37 39 42 45 46 44 40 39 41 41 42 43 41 43 44 46 44 43 42 42 41 41 38 37 37 35 34 33 34 33 34 33 29 28 26 24 23
14 15 19 22 24 27 34 32 33 35 36 38 35 36 34 38 43 47 48 46 42 43 43 44 45 46 46 47 47 49 47 45 42 38 36 35 34 34 37 34 35 36 38 36 31 29 29 25 25
15 18 22 23 26 32 31 35 32 34 35 33 32 32 30 31 32 36 43 47 51 47 47 47 47 47 49 49 50 49 49 46 43 38 35 33 31 32 26 34 37 37 46 39 32 29 29 27 27
16 23 24 26 27 32 32 33 29 32 31 29 29 30 32 32 34 35 36 39 44 51 51 52 49 48 47 50 47 46 43 43 38 37 36 32 30 28 30 26 29 27 41 35 34 30 30 29 29
23 21 24 23 27 34 30 29 28 30 28 28 29 32 30 29 30 33 38 40 42 44 47 55 55 52 48 49 47 46 45 45 38 37 39 35 31 29 28 29 25 24 23 25 37 32 30 31 30
20 26 24 20 32 29 30 25 22 22 25 28 30 28 27 29 32 35 37 39 40 43 42 42 56 57 53 47 45 51 47 47 47 38 35 33 33 30 29 30 30 27 26 25 31 33 38 41 34
24 20 24 27 23 31 24 25 23 21 24 29 29 27 27 32 35 33 34 37 34 41 40 37 38 53 57 52 48 48 51 42 51 44 40 32 29 30 31 33 34 33 33 33 27 33 35 38 38
25 23 24 23 35 30 23 26 24 29 25 27 30 28 30 33 28 30 30 29 33 36 39 33 32 36 49 53 48 45 42 43 38 38 46 32 30 35 35 36 37 35 36 36 36 25 28 32 36
24 28 26 27 23 28 28 31 23 24 23 27 26 25 31 30 27 26 27 28 29 32 33 35 31 32 35 42 43 44 43 42 38 37 36 45 40 40 35 34 36 34 34 33 33 28 31 37 29
27 33 35 34 20 25 24 26 18 21 23 25 21 23 30 28 25 26 27 25 26 26 31 35 34 33 30 32 35 38 40 38 38 38 38 36 39 36 33 33 31 30 32 31 36 27 27 30 23
28 35 28 26 27 27 22 23 19 16 19 18 18 25 33 26 23 25 26 24 25 24 26 31 37 33 31 30 33 35 35 36 34 34 35 38 39 34 30 29 26 26 30 30 34 30 27 31 33
29 27 32 40 37 17 17 16 7 10 12 13 18 30 29 25 21 19 21 20 20 20 23 26 28 34 30 30 31 34 35 34 35 36 35 36 36 31 29 26 23 25 26 31 29 27 35 32 29
32 30 35 44 18 7 11 7 13 9 11 12 19 27 22 20 20 19 17 16 17 16 19 23 27 32 32 30 30 32 35 35 35 36 38 38 36 32 29 24 24 26 28 32 33 30 27 27 28
27 31 40 26 11 13 4 5 7 12 11 13 22 29 20 18 17 16 16 15 14 16 15 19 23 28 30 29 29 30 33 36 38 37 36 35 34 31 28 26 26 26 31 33 34 28 29 30 28
26 33 20 10 7 4 4 2 7 7 13 21 25 30 20 16 15 15 15 14 13 14 15 16 22 28 31 30 28 28 30 33 36 36 36 35 33 31 30 27 27 27 31 28 31 30 30 31 28
24 28 5 4 3 3 3 7 12 18 18 22 29 32 20 16 15 14 14 13 13 13 13 14 19 23 25 27 27 26 27 30 32 34 35 34 34 33 31 30 29 31 34 29 34 30 30 30 37
17 16 3 7 5 7 9 7 8 18 21 19 36 27 20 16 15 14 14 15 14 14 11 8 13 19 20 22 24 23 25 27 29 31 33 33 33 32 31 31 30 33 34 36 31 34 33 31 23
12 11 10 6 11 6 6 7 13 12 20 33 26 19 16 14 13 13 15 15 12 13 9 5 6 11 15 17 18 20 21 23 26 29 30 30 30 31 30 30 31 34 36 33 36 35 34 27 32
11 13 5 3 5 7 6 7 9 22 33 33 15 14 13 11 12 13 13 14 13 12 9 4 5 9 10 11 11 12 13 17 20 22 24 26 28 29 27 27 32 37 39 37 41 38 35 33 31
11 9 5 7 3 4 6 2 14 32 40 32 15 10 10 9 9 10 10 10 11 10 8 4 3 8 10 10 10 10 9 8 9 12 15 19 21 23 23 27 24 27 25 38 42 51 32 31 31
11 12 9 2 1 7 5 11 23 38 36 29 19 9 7 6 7 9 11 10 9 9 5 2 11 14 15 16 15 14 13 11 10 9 8 12 17 20 23 21 21 28 26 30 32 24 32 35 27
Wind_Direction
294 292 284 272 249 229 246 257 268 270 279 277 276 276 272 270 241 236 239 231 233 235 229 230 229 228 230 234 238 234 229 227 228 222 222 214 207 207 208 208 207 210 218 223 226 231 243 252 262
298 294 288 276 234 244 264 272 278 272 273 277 278 276 276 268 258 253 248 242 231 229 228 230 234 231 231 229 232 232 232 230 225 223 219 217 217 209 210 214 215 218 217 229 234 240 241 254 262
294 289 285 268 250 255 262 280 276 273 277 278 278 277 270 258 264 260 254 243 242 243 244 238 232 233 233 228 229 234 232 232 228 226 220 225 222 217 216 216 221 222 225 232 235 240 244 251 261
303 288 275 256 261 267 270 279 277 278 277 277 278 275 268 261 259 257 256 250 243 249 252 253 245 236 233 237 230 230 230 224 224 222 222 223 224 222 218 220 223 225 227 232 236 236 245 253 253
305 292 263 267 277 284 284 279 279 275 274 274 275 270 265 263 257 255 257 256 252 246 249 252 252 241 235 230 228 230 228 224 219 219 221 225 225 224 222 224 226 229 234 236 236 235 241 246 254
294 292 282 273 283 294 292 293 291 288 285 283 277 273 270 270 266 261 258 257 258 255 250 247 246 244 239 233 231 225 227 227 224 219 220 223 226 226 224 225 228 232 233 239 242 242 242 245 242
294 288 272 283 292 299 294 292 289 284 283 279 279 278 274 271 272 268 263 260 255 253 249 250 247 242 240 237 231 228 225 227 229 228 222 223 225 227 226 225 228 233 236 238 238 237 241 246 244
305 295 293 296 295 289 295 290 286 281 275 271 269 271 267 272 268 265 263 259 257 254 249 243 244 243 239 238 235 230 226 224 227 231 230 227 227 226 227 226 228 231 236 238 238 236 234 237 238
323 309 299 297 296 292 293 289 286 282 280 273 269 266 265 264 262 261 258 255 253 250 248 244 240 241 237 236 231 232 230 226 222 225 229 229 229 229 229 229 228 230 237 239 239 237 235 234 231
334 318 307 305 301 296 296 295 291 289 287 280 275 270 269 268 267 264 256 251 248 245 243 243 240 238 237 237 234 228 228 229 225 225 225 228 229 229 229 232 230 230 234 236 235 234 233 231 229
330 316 310 308 299 301 302 299 297 295 289 286 284 279 274 270 267 267 263 259 250 243 237 237 237 235 236 237 236 237 230 231 230 226 228 228 229 232 237 237 238 242 230 232 231 230 230 232 231
327 315 315 309 308 302 299 298 300 292 291 292 292 289 288 284 277 270 267 264 257 251 238 233 232 232 235 235 234 234 232 232 224 223 226 226 228 226 244 239 252 256 224 226 228 228 229 231 231
323 320 322 313 312 304 304 306 301 298 300 297 294 291 289 286 285 281 272 267 259 253 247 240 236 231 229 235 231 230 226 223 218 217 221 223 225 231 237 248 256 262 237 244 229 226 226 228 230
327 326 321 318 317 309 306 303 294 300 298 289 291 294 292 292 290 285 281 273 266 260 248 242 240 237 234 230 231 232 227 221 215 215 218 221 226 232 241 249 255 272 287 273 235 233 230 230 234
330 329 326 322 324 319 311 306 298 299 292 292 295 293 294 298 298 290 281 274 269 260 258 246 237 239 239 238 234 228 229 234 218 215 220 222 228 238 248 254 258 263 273 275 268 255 252 230 231
339 336 334 321 326 323 311 302 301 301 294 294 298 293 298 306 302 288 280 271 269 255 251 251 241 236 238 243 239 241 227 241 238 225 222 228 238 245 256 262 263 265 266 268 271 281 246 238 231
339 330 325 329 323 321 312 304 302 302 294 297 302 300 307 313 304 291 283 270 265 258 247 237 236 234 233 239 244 243 244 241 243 251 241 240 249 257 259 266 266 267 265 264 265 264 265 247 232
332 327 321 316 314 307 302 305 302 294 288 297 300 307 318 318 308 299 289 280 270 256 242 232 224 232 224 229 237 242 242 239 243 245 243 250 258 260 263 266 266 262 259 252 250 248 254 254 251
330 327 320 323 310 311 311 305 304 285 290 294 298 307 320 317 317 309 297 291 277 259 237 236 219 224 224 217 224 231 236 238 243 244 241 240 249 256 258 259 260 257 249 247 235 239 247 245 247
328 324 322 329 321 301 309 307 297 285 285 287 292 307 319 317 318 314 304 290 283 263 240 236 226 215 220 218 218 226 230 233 232 233 239 240 245 248 249 250 251 248 244 236 221 235 245 239 245
322 317 317 318 317 317 312 306 253 293 292 291 308 321 320 319 313 311 303 283 277 259 240 240 227 218 221 216 218 218 222 226 226 226 228 234 238 237 240 242 241 240 232 231 229 221 231 241 242
321 320 315 316 313 312 319 296 291 282 300 303 321 329 323 320 319 310 305 284 275 263 248 240 233 228 225 219 216 215 217 219 224 222 223 224 224 225 232 235 234 233 228 220 225 226 230 234 240
321 318 316 304 295 303 244 265 259 292 295 306 318 333 331 329 327 317 308 297 275 276 260 249 237 237 222 215 214 214 217 218 219 223 222 220 219 218 222 229 233 227 224 217 224 218 222 229 238
328 332 320 294 277 253 225 263 276 274 299 312 319 332 335 339 333 331 317 307 292 282 277 253 237 231 220 215 216 216 219 220 220 221 220 217 217 216 218 223 230 227 217 218 214 218 226 231 234
334 352 329 278 257 308 252 272 269 302 300 309 321 327 331 340 348 337 328 314 312 307 292 260 239 225 217 216 216 218 220 221 222 223 221 215 214 214 216 221 225 216 215 217 216 220 223 229 231
338 13 45 299 316 312 282 242 282 306 308 312 319 321 327 338 349 351 344 334 313 305 301 273 231 217 214 214 216 217 218 218 219 222 222 217 214 214 217 222 223 212 212 217 215 208 213 202 213
339 352 328 259 279 279 253 288 308 317 320 330 323 313 318 328 348 358 355 352 337 319 295 279 229 211 209 213 215 216 217 217 218 219 219 217 217 219 221 222 215 213 217 222 218 208 201 211 217
331 338 336 314 308 296 282 286 306 330 336 344 322 304 310 325 347 1 1 358 352 347 321 281 184 164 169 178 187 200 208 215 220 218 216 216 220 222 225 227 220 219 224 220 215 218 216 218 220
318 320 326 302 229 294 310 327 336 341 340 348 334 302 306 324 342 357 360 358 352 350 350 356 139 135 138 143 148 156 170 185 201 209 212 218 220 223 226 231 225 239 225 229 218 227 209 216 227
304 299 302 238 224 247 265 280 343 336 340 348 346 316 305 333 337 356 10 2 1 353 353 59 121 116 117 123 123 122 128 128 138 150 191 213 218 230 225 237 224 226 245 229 220 208 215 207 225
Height
3113 3113 3114 3116 3123 3118 3116 3113 3112 3112 3111 3111 3111 3111 3112 3112 3113 3117 3109 3108 3108 3109 3111 3113 3115 3116 3117 3119 3121 3123 3125 3126 3127 3127 3128 3128 3128 3130 3132 3133 3135 3136 3137 3138 3139 3140 3142 3142 3143
3112 3112 3113 3113 3118 3115 3114 3111 3110 3108 3108 3108 3108 3108 3108 3108 3107 3107 3107 3107 3106 3106 3107 3109 3111 3112 3114 3116 3117 3119 3121 3122 3123 3125 3125 3126 3127 3128 3130 3131 3133 3134 3135 3136 3138 3139 3139 3139 3140
3109 3109 3111 3111 3109 3109 3109 3106 3106 3106 3104 3104 3103 3104 3103 3101 3102 3101 3103 3103 3103 3102 3103 3105 3106 3108 3111 3111 3114 3115 3117 3118 3120 3122 3123 3124 3125 3125 3127 3129 3131 3132 3133 3133 3135 3136 3136 3137 3137
3106 3107 3108 3106 3105 3105 3104 3104 3103 3103 3101 3099 3099 3099 3096 3097 3096 3095 3095 3098 3099 3099 3100 3101 3102 3103 3106 3108 3109 3110 3112 3113 3115 3118 3119 3121 3122 3123 3124 3126 3128 3129 3130 3131 3132 3133 3133 3134 3134
3103 3103 3103 3101 3101 3101 3100 3098 3098 3099 3097 3095 3093 3091 3091 3089 3089 3089 3089 3091 3093 3094 3095 3096 3098 3099 3100 3100 3103 3105 3107 3109 3110 3112 3115 3117 3119 3121 3122 3123 3125 3126 3127 3128 3129 3131 3131 3131 3132
3101 3102 3101 3100 3098 3097 3095 3094 3094 3093 3092 3091 3087 3085 3086 3081 3080 3082 3083 3085 3087 3089 3090 3090 3091 3093 3095 3096 3097 3099 3102 3103 3105 3107 3109 3112 3115 3117 3118 3120 3121 3122 3124 3125 3127 3128 3128 3129 3130
3099 3099 3098 3096 3096 3094 3092 3090 3089 3088 3087 3084 3081 3078 3076 3073 3075 3075 3076 3077 3078 3080 3083 3084 3086 3088 3090 3091 3093 3095 3097 3099 3101 3103 3104 3106 3109 3112 3114 3115 3117 3118 3120 3122 3123 3124 3125 3126 3128
3096 3097 3095 3093 3092 3090 3087 3085 3083 3082 3081 3079 3077 3073 3070 3066 3065 3066 3066 3068 3070 3071 3073 3076 3077 3079 3082 3085 3087 3089 3090 3092 3095 3097 3099 3101 3103 3106 3109 3111 3112 3115 3116 3118 3120 3121 3122 3123 3124
3093 3093 3091 3088 3087 3085 3083 3080 3077 3075 3073 3072 3070 3066 3061 3058 3057 3058 3058 3058 3059 3062 3064 3067 3070 3071 3073 3076 3079 3082 3084 3085 3088 3091 3093 3096 3099 3101 3103 3105 3107 3109 3111 3113 3116 3117 3119 3120 3121
3091 3090 3087 3084 3082 3079 3076 3074 3071 3068 3065 3062 3060 3058 3055 3052 3049 3048 3049 3050 3051 3053 3055 3057 3060 3063 3065 3067 3070 3072 3076 3079 3081 3084 3086 3090 3093 3095 3098 3100 3102 3103 3105 3108 3110 3112 3114 3116 3118
3087 3086 3083 3081 3076 3072 3069 3065 3062 3058 3054 3050 3050 3048 3047 3044 3042 3039 3039 3040 3042 3044 3046 3047 3051 3054 3056 3059 3063 3065 3068 3071 3074 3078 3080 3083 3086 3090 3093 3094 3096 3097 3099 3101 3104 3107 3110 3113 3115
3085 3082 3079 3075 3071 3066 3062 3057 3054 3049 3047 3044 3040 3038 3037 3034 3032 3031 3029 3029 3032 3036 3037 3038 3040 3044 3047 3049 3053 3057 3060 3063 3066 3070 3074 3076 3080 3083 3077 3088 3087 3089 3083 3091 3098 3102 3105 3109 3111
3080 3077 3074 3069 3066 3059 3054 3051 3047 3042 3040 3035 3032 3030 3027 3026 3023 3021 3019 3018 3018 3022 3026 3029 3030 3032 3036 3041 3043 3047 3051 3053 3057 3061 3066 3069 3073 3076 3079 3081 3084 3082 3080 3086 3090 3096 3100 3103 3106
3076 3072 3069 3065 3060 3052 3048 3045 3039 3035 3033 3029 3026 3023 3020 3018 3015 3012 3009 3006 3006 3007 3011 3017 3021 3023 3025 3031 3035 3038 3042 3046 3049 3053 3057 3062 3066 3070 3072 3075 3078 3080 3082 3083 3087 3090 3094 3098 3101
3070 3067 3063 3057 3051 3046 3040 3037 3033 3032 3027 3024 3021 3017 3014 3010 3006 3002 3000 2997 2995 2996 2999 3002 3008 3012 3016 3020 3025 3029 3034 3037 3037 3044 3049 3052 3058 3063 3066 3069 3072 3076 3079 3082 3083 3086 3086 3090 3095
3065 3061 3057 3053 3046 3041 3037 3030 3026 3024 3021 3017 3014 3011 3007 3002 2997 2992 2989 2986 2985 2985 2988 2991 2994 3000 3005 3010 3014 3019 3025 3030 3033 3034 3038 3045 3050 3055 3059 3063 3066 3070 3073 3076 3078 3079 3080 3083 3086
3060 3057 3055 3049 3039 3036 3032 3024 3020 3017 3014 3011 3007 3003 2999 2993 2988 2983 2980 2977 2976 2976 2978 2983 2984 2988 2993 2999 3005 3010 3015 3022 3023 3028 3033 3037 3042 3048 3051 3056 3060 3062 3064 3069 3071 3073 3077 3077 3082
3060 3054 3051 3047 3041 3031 3025 3017 3016 3010 3008 3004 3001 2998 2993 2987 2981 2976 2972 2969 2967 2967 2969 2974 2977 2981 2984 2989 2996 3001 3007 3012 3017 3023 3025 3032 3036 3042 3044 3048 3051 3055 3056 3060 3064 3067 3070 3073 3075
3057 3052 3044 3039 3033 3025 3018 3011 3009 3005 3002 3000 2995 2992 2988 2981 2975 2969 2965 2961 2959 2959 2961 2965 2969 2974 2977 2980 2987 2991 2997 3004 3008 3014 3019 3025 3031 3034 3038 3041 3044 3046 3048 3051 3057 3060 3062 3066 3068
3053 3047 3041 3031 3027 3022 3013 3006 3003 3000 2998 2996 2992 2988 2981 2975 2969 2964 2960 2956 2954 2953 2955 2958 2962 2966 2971 2974 2978 2984 2990 2997 3002 3007 3013 3018 3024 3028 3031 3034 3036 3038 3040 3042 3051 3052 3056 3058 3061
3050 3044 3037 3031 3018 3014 3009 3000 2998 2996 2993 2990 2988 2982 2974 2969 2965 2961 2958 2955 2951 2950 2951 2952 2954 2959 2964 2968 2973 2978 2982 2986 2994 2999 3004 3009 3014 3019 3023 3026 3028 3031 3033 3037 3041 3046 3049 3052 3056
3043 3039 3032 3024 3019 3016 3010 3004 2995 2992 2990 2987 2985 2978 2971 2966 2961 2957 2955 2953 2950 2948 2947 2948 2949 2952 2956 2962 2965 2970 2975 2980 2984 2989 2994 3002 3007 3011 3015 3018 3022 3024 3026 3030 3036 3039 3040 3045 3049
3043 3035 3026 3018 3015 3012 3007 3007 2992 2990 2987 2984 2981 2974 2967 2962 2958 2954 2952 2950 2948 2945 2944 2943 2944 2946 2950 2955 2959 2963 2967 2972 2976 2980 2986 2995 2999 3002 3007 3012 3015 3017 3020 3025 3030 3032 3036 3038 3041
3038 3029 3017 3014 3014 3010 3003 3005 2990 2987 2985 2981 2976 2971 2964 2959 2955 2952 2949 2947 2945 2943 2941 2939 2940 2943 2946 2950 2955 2959 2962 2965 2969 2974 2980 2987 2991 2997 3002 3005 3008 3012 3016 3020 3022 3027 3029 3031 3034
3036 3029 3020 3014 3009 3001 3001 3002 2987 2984 2980 2977 2971 2966 2961 2956 2951 2949 2947 2944 2942 2939 2937 2936 2937 2939 2942 2946 2951 2955 2957 2961 2964 2969 2974 2981 2986 2992 2996 3000 3002 3006 3010 3013 3017 3020 3022 3025 3028
3034 3033 3034 3027 3011 3006 3000 2994 2985 2981 2978 2974 2967 2961 2957 2954 2950 2947 2946 2944 2942 2940 2937 2935 2934 2936 2939 2943 2947 2950 2953 2957 2961 2965 2969 2975 2981 2986 2989 2993 2996 3000 3005 3008 3011 3014 3018 3019 3022
3034 3033 3032 3029 3022 3018 2994 2988 2982 2979 2976 2970 2961 2957 2955 2953 2950 2947 2945 2943 2940 2938 2937 2935 2934 2934 2936 2939 2942 2946 2950 2954 2958 2961 2966 2971 2976 2980 2985 2988 2992 2997 2999 3003 3007 3010 3012 3014 3017
3034 3032 3030 3028 3020 3005 2988 2987 2983 2977 2971 2964 2957 2954 2953 2952 2950 2947 2944 2942 2941 2939 2937 2936 2935 2934 2935 2938 2941 2945 2948 2952 2955 2959 2964 2968 2973 2977 2980 2984 2988 2992 2994 2998 3000 3004 3006 3010 3014
3030 3028 3028 3027 3025 3020 3003 2984 2981 2974 2967 2961 2954 2951 2951 2952 2950 2947 2944 2943 2942 2940 2938 2937 2935 2935 2935 2937 2940 2943 2947 2951 2955 2958 2963 2967 2971 2975 2979 2981 2984 2988 2991 2995 2997 2995 2999 3005 3007
3027 3025 3024 3024 3023 3020 3014 2990 2980 2973 2967 2961 2952 2949 2949 2951 2950 2948 2946 2944 2942 2940 2938 2937 2936 2935 2935 2936 2940 2943 2947 2950 2954 2958 2962 2966 2969 2972 2975 2978 2981 2984 2986 2987 2989 2987 2995 2996 3000